TimeCST,TemperatureF,Dew PointF,Humidity,Sea Level PressureIn,VisibilityMPH,Wind Direction,Wind SpeedMPH,Gust SpeedMPH,PrecipitationIn,Events,Conditions,WindDirDegrees,DateUTC
12:15 AM,32.5,30.2,91,29.91,5.0,NW,8.1,-,N/A,,Mostly Cloudy,310,2012-12-29 06:15:00
12:35 AM,32.5,30.2,91,29.91,5.0,WNW,6.9,-,N/A,,Mostly Cloudy,300,2012-12-29 06:35:00
12:55 AM,32.4,30.2,92,29.92,5.0,WNW,8.1,-,N/A,,Mostly Cloudy,300,2012-12-29 06:55:00
1:15 AM,32.2,30.2,92,29.92,5.0,WNW,8.1,-,N/A,,Overcast,300,2012-12-29 07:15:00
1:35 AM,32.0,30.0,92,29.93,5.0,WNW,8.1,-,N/A,,Overcast,300,2012-12-29 07:35:00
1:55 AM,32.0,29.8,92,29.94,5.0,WNW,6.9,-,N/A,,Overcast,300,2012-12-29 07:55:00
2:15 AM,32.0,29.8,92,29.94,5.0,WNW,6.9,-,N/A,,Overcast,300,2012-12-29 08:15:00
2:35 AM,32.0,29.8,92,29.95,5.0,WNW,8.1,-,N/A,,Overcast,300,2012-12-29 08:35:00
2:55 AM,32.0,29.7,91,29.95,5.0,NW,8.1,-,N/A,,Overcast,310,2012-12-29 08:55:00
3:15 AM,32.0,29.3,90,29.95,5.0,WNW,10.4,-,N/A,,Overcast,300,2012-12-29 09:15:00
3:35 AM,32.0,29.3,90,29.95,5.0,NW,8.1,-,N/A,,Overcast,310,2012-12-29 09:35:00
3:55 AM,32.0,29.3,90,29.96,4.0,NW,8.1,-,N/A,Snow,Light Snow,310,2012-12-29 09:55:00
4:15 AM,32.0,28.9,88,29.96,5.0,NW,11.5,-,N/A,Snow,Light Snow,310,2012-12-29 10:15:00
4:35 AM,32.0,28.4,87,29.97,5.0,NW,10.4,-,N/A,Snow,Light Snow,310,2012-12-29 10:35:00
4:55 AM,31.6,27.9,86,29.97,4.0,NW,11.5,-,N/A,Snow,Light Snow,320,2012-12-29 10:55:00
5:15 AM,31.5,28.0,87,29.98,4.0,NW,11.5,-,N/A,Snow,Light Snow,320,2012-12-29 11:15:00
5:35 AM,31.3,27.9,87,29.99,5.0,NW,11.5,-,N/A,Snow,Light Snow,310,2012-12-29 11:35:00
5:55 AM,31.1,27.1,85,29.99,5.0,NW,10.4,-,N/A,Snow,Light Snow,310,2012-12-29 11:55:00
6:15 AM,30.9,26.8,85,30.00,5.0,NW,10.4,-,N/A,Snow,Light Snow,320,2012-12-29 12:15:00
6:35 AM,30.9,26.6,84,30.01,5.0,NNW,9.2,-,N/A,,Overcast,330,2012-12-29 12:35:00
6:55 AM,30.7,26.8,85,30.02,5.0,NW,10.4,-,N/A,Snow,Light Snow,320,2012-12-29 12:55:00
7:15 AM,30.9,27.0,85,30.03,5.0,WNW,16.1,-,N/A,Snow,Light Snow,300,2012-12-29 13:15:00
7:35 AM,30.2,26.2,85,30.03,5.0,WNW,12.7,21.9,N/A,Snow,Light Snow,300,2012-12-29 13:35:00
7:55 AM,29.8,25.7,85,30.05,5.0,WNW,11.5,20.7,N/A,,Overcast,300,2012-12-29 13:55:00
8:15 AM,29.3,24.8,83,30.06,5.0,WNW,10.4,19.6,N/A,,Overcast,300,2012-12-29 14:15:00
8:35 AM,29.1,24.6,83,30.08,5.0,WNW,13.8,17.3,N/A,,Haze,290,2012-12-29 14:35:00
8:55 AM,28.6,23.9,83,30.08,5.0,WNW,17.3,21.9,N/A,,Overcast,290,2012-12-29 14:55:00
9:15 AM,28.4,23.5,82,30.10,7.0,WNW,15.0,23.0,N/A,,Overcast,290,2012-12-29 15:15:00
9:35 AM,28.6,23.2,80,30.11,7.0,WNW,16.1,21.9,N/A,,Overcast,290,2012-12-29 15:35:00
9:55 AM,28.4,22.3,78,30.12,5.0,WNW,15.0,25.3,N/A,Snow,Light Snow,290,2012-12-29 15:55:00
10:15 AM,28.4,22.8,80,30.13,4.0,WNW,16.1,19.6,N/A,Snow,Light Snow,290,2012-12-29 16:15:00
10:35 AM,28.2,23.2,81,30.13,4.0,WNW,18.4,24.2,N/A,Snow,Light Snow,290,2012-12-29 16:35:00
10:55 AM,28.0,23.2,82,30.14,1.8,West,19.6,23.0,N/A,Snow,Light Snow,280,2012-12-29 16:55:00
11:15 AM,27.5,22.8,83,30.14,1.8,West,20.7,25.3,N/A,Snow,Light Snow,280,2012-12-29 17:15:00
11:35 AM,28.2,22.8,80,30.14,3.0,West,18.4,26.5,N/A,Snow,Light Snow,280,2012-12-29 17:35:00
11:55 AM,28.0,22.6,80,30.14,5.0,West,20.7,25.3,N/A,Snow,Light Snow,280,2012-12-29 17:55:00
12:15 PM,27.9,21.7,78,30.13,5.0,WNW,20.7,28.8,N/A,Snow,Light Snow,290,2012-12-29 18:15:00
12:35 PM,28.4,21.2,74,30.13,7.0,West,20.7,27.6,N/A,Snow,Light Snow,280,2012-12-29 18:35:00
12:55 PM,29.3,22.1,75,30.14,10.0,WNW,21.9,27.6,N/A,,Overcast,290,2012-12-29 18:55:00
1:15 PM,28.6,21.4,74,30.14,10.0,West,21.9,27.6,N/A,,Mostly Cloudy,280,2012-12-29 19:15:00
1:35 PM,28.2,20.5,73,30.15,10.0,WNW,18.4,25.3,N/A,,Mostly Cloudy,290,2012-12-29 19:35:00
1:55 PM,28.0,20.7,74,30.15,10.0,WNW,17.3,21.9,N/A,,Scattered Clouds,290,2012-12-29 19:55:00
2:15 PM,28.6,20.5,72,30.15,10.0,WNW,16.1,21.9,N/A,,Mostly Cloudy,300,2012-12-29 20:15:00
2:35 PM,29.1,20.8,71,30.16,10.0,WNW,16.1,-,N/A,,Scattered Clouds,300,2012-12-29 20:35:00
2:55 PM,29.7,20.5,69,30.17,10.0,WNW,17.3,23.0,N/A,,Mostly Cloudy,290,2012-12-29 20:55:00
3:15 PM,28.4,20.7,73,30.18,10.0,WNW,13.8,18.4,N/A,,Mostly Cloudy,290,2012-12-29 21:15:00
3:35 PM,28.4,20.3,72,30.19,10.0,West,18.4,-,N/A,,Mostly Cloudy,280,2012-12-29 21:35:00
3:55 PM,28.2,20.1,72,30.20,10.0,West,13.8,-,N/A,,Mostly Cloudy,280,2012-12-29 21:55:00
4:15 PM,27.9,20.1,73,30.20,10.0,West,13.8,-,N/A,,Scattered Clouds,280,2012-12-29 22:15:00
4:35 PM,27.0,19.6,74,30.20,10.0,West,9.2,-,N/A,,Clear,280,2012-12-29 22:35:00
4:55 PM,25.7,19.4,77,30.21,10.0,West,9.2,-,N/A,,Clear,280,2012-12-29 22:55:00
5:15 PM,25.3,18.5,75,30.23,10.0,West,10.4,-,N/A,,Clear,280,2012-12-29 23:15:00
5:35 PM,24.3,18.5,79,30.23,10.0,West,8.1,-,N/A,,Clear,270,2012-12-29 23:35:00
5:55 PM,23.0,17.6,80,30.25,10.0,West,8.1,-,N/A,,Clear,280,2012-12-29 23:55:00
6:15 PM,21.7,17.6,84,30.26,10.0,Calm,Calm,-,N/A,,Clear,0,2012-12-30 00:15:00
6:35 PM,22.3,17.6,82,30.26,10.0,Calm,Calm,-,N/A,,Clear,0,2012-12-30 00:35:00
6:55 PM,23.5,18.0,79,30.27,10.0,Calm,Calm,-,N/A,,Clear,0,2012-12-30 00:55:00
7:15 PM,23.0,17.6,80,30.27,10.0,Calm,Calm,-,N/A,,Clear,0,2012-12-30 01:15:00
7:35 PM,23.9,18.1,79,30.29,10.0,Calm,Calm,-,N/A,,Clear,0,2012-12-30 01:35:00
7:55 PM,23.9,18.3,79,30.30,10.0,West,6.9,-,N/A,,Clear,260,2012-12-30 01:55:00
8:15 PM,23.7,18.3,80,30.30,10.0,Calm,Calm,-,N/A,,Clear,0,2012-12-30 02:15:00
8:35 PM,23.4,18.0,80,30.30,10.0,Calm,Calm,-,N/A,,Clear,0,2012-12-30 02:35:00
8:55 PM,22.1,17.4,82,30.30,10.0,Calm,Calm,-,N/A,,Clear,0,2012-12-30 02:55:00
9:15 PM,21.0,16.7,83,30.30,10.0,Calm,Calm,-,N/A,,Clear,0,2012-12-30 03:15:00
9:35 PM,21.0,17.4,86,30.30,10.0,Calm,Calm,-,N/A,,Clear,0,2012-12-30 03:35:00
9:55 PM,21.7,17.4,83,30.31,10.0,Calm,Calm,-,N/A,,Clear,0,2012-12-30 03:55:00
10:15 PM,21.9,17.6,83,30.31,10.0,Calm,Calm,-,N/A,,Clear,0,2012-12-30 04:15:00
10:35 PM,21.9,17.6,83,30.32,10.0,Calm,Calm,-,N/A,,Clear,0,2012-12-30 04:35:00
10:55 PM,21.7,17.4,83,30.32,10.0,Calm,Calm,-,N/A,,Clear,0,2012-12-30 04:55:00
11:15 PM,21.4,17.4,85,30.32,10.0,Calm,Calm,-,N/A,,Clear,0,2012-12-30 05:15:00
11:35 PM,21.6,17.4,84,30.31,10.0,Calm,Calm,-,N/A,,Clear,0,2012-12-30 05:35:00
11:55 PM,22.1,18.0,84,30.31,10.0,Calm,Calm,-,N/A,,Clear,0,2012-12-30 05:55:00